Hutchinson, MN

2:32 AM CST on February 27, 2017 (GMT -0600)
Hutchinson Municipal-Butler

Weather History for KHCD - September, 2012

Change the Weather History Date:

Friday, September 14, 2012

  Actual Average Record
Temperature  
Mean Temperature 56 °F -  
Max Temperature 74 °F 71 °F 87 °F (1969)
Min Temperature 39 °F 48 °F -122 °F (2004)
Degree Days  
Heating Degree Days 8    
Growing Degree Days 6 (Base 50)    
Moisture  
Dew Point 42 °F    
Average Humidity 52    
Maximum Humidity 94    
Minimum Humidity 31    
Precipitation  
Precipitation 0.00 in - - ()
Sea Level Pressure  
Sea Level Pressure 30.29 in    
Wind  
Wind Speed 6 mph (ENE)    
Max Wind Speed 12 mph    
Max Gust Speed 21 mph    
Visibility 10 miles    
Events      
Averages and records for this station are not official NWS values.
T = Trace of Precipitation, MM = Missing Value Source: NWS Daily Summary

Daily Weather History Graph

Daily Weather History Graph

Search for Another Location

Airport or City:

Trip Planner

Search our weather history database for the weather conditions in past years. The results will help you decide how hot, cold, wet, or windy it might be!

Date:

Astronomy

Sep. 14, 2012 Rise Set
Actual Time 6:55 AM CDT 7:29 PM CDT
Civil Twilight 6:26 AM CDT 7:58 PM CDT
Nautical Twilight 5:51 AM CDT 8:33 PM CDT
Astronomical Twilight 5:15 AM CDT 9:09 PM CDT
Moon 5:18 AM CDT (9/14) 6:26 PM CDT (9/14)
Length of Visible Light 13h 32m
Length of Day
12h 33m
Waning Crescent, 2% of the Moon is Illuminated
Sep 14
Waning Crescent
Sep 15
New
Sep 22
First Quarter
Sep 29
Full
Oct 8
Last Quarter

Hourly Weather History & Observations

Time (CDT) Temp. Windchill Dew Point Humidity Pressure Visibility Wind Dir Wind Speed Gust Speed Precip Events Conditions
12:10 AM 59.0 °F - 41.0 °F 51% 30.28 in 10.0 mi NE 5.8 mph - N/A   Clear
12:30 AM 57.2 °F - 41.0 °F 55% 30.28 in 10.0 mi NE 5.8 mph - N/A   Clear
12:50 AM 53.6 °F - 42.8 °F 67% 30.27 in 10.0 mi NNE 4.6 mph - N/A   Clear
1:10 AM 53.6 °F - 42.8 °F 67% 30.29 in 10.0 mi NNE 4.6 mph - N/A   Clear
1:30 AM 53.6 °F - 39.2 °F 58% 30.29 in 10.0 mi NNE 6.9 mph - N/A   Clear
1:50 AM 57.2 °F - 39.2 °F 51% 30.29 in 10.0 mi NNE 5.8 mph - N/A   Clear
2:10 AM 53.6 °F - 39.2 °F 58% 30.28 in 10.0 mi NE 5.8 mph - N/A   Clear
2:30 AM 53.6 °F - 39.2 °F 58% 30.28 in 10.0 mi ENE 5.8 mph - N/A   Clear
2:50 AM 53.6 °F - 41.0 °F 62% 30.28 in 10.0 mi NNE 8.1 mph - N/A   Clear
3:10 AM 55.4 °F - 41.0 °F 58% 30.28 in 10.0 mi NE 9.2 mph - N/A   Clear
3:30 AM 53.6 °F - 41.0 °F 62% 30.28 in 10.0 mi ENE 9.2 mph - N/A   Clear
3:50 AM 51.8 °F - 39.2 °F 62% 30.28 in 10.0 mi ENE 9.2 mph - N/A   Clear
4:10 AM 53.6 °F - 41.0 °F 62% 30.28 in 10.0 mi ENE 9.2 mph - N/A   Clear
4:30 AM 51.8 °F - 41.0 °F 67% 30.28 in 10.0 mi ENE 6.9 mph - N/A   Clear
4:50 AM 50.0 °F - 41.0 °F 71% 30.28 in 10.0 mi ENE 5.8 mph - N/A   Clear
5:07 AM 49.1 °F - 40.5 °F 72% 30.29 in 10.0 mi East 3.5 mph - N/A   Clear
5:29 AM 46.0 °F - 39.6 °F 78% 30.30 in 10.0 mi Calm Calm - N/A   Clear
5:49 AM 41.2 °F - 37.6 °F 87% 30.30 in 10.0 mi Calm Calm - N/A   Clear
6:09 AM 40.3 °F - 38.3 °F 93% 30.30 in 10.0 mi Calm Calm - N/A   Clear
6:29 AM 39.2 °F - 37.6 °F 94% 30.30 in 10.0 mi Calm Calm - N/A   Clear
6:49 AM 39.2 °F - 37.6 °F 94% 30.31 in 10.0 mi Calm Calm - N/A   Clear
7:09 AM 40.6 °F - 38.8 °F 93% 30.32 in 10.0 mi Calm Calm - N/A   Clear
7:29 AM 46.4 °F 43.5 °F 42.4 °F 86% 30.32 in 10.0 mi NNE 5.8 mph - N/A   Clear
7:49 AM 49.5 °F - 42.8 °F 78% 30.32 in 10.0 mi NE 5.8 mph - N/A   Clear
8:09 AM 54.1 °F - 44.4 °F 70% 30.32 in 10.0 mi NE 8.1 mph - N/A   Clear
8:26 AM 54.1 °F - 43.9 °F 68% 30.32 in 10.0 mi NE 8.1 mph - N/A   Clear
8:50 AM 57.2 °F - 44.6 °F 63% 30.32 in 10.0 mi ENE 8.1 mph - N/A   Clear
9:10 AM 57.2 °F - 42.8 °F 59% 30.33 in 10.0 mi ENE 9.2 mph - N/A   Clear
9:30 AM 59.0 °F - 42.8 °F 55% 30.32 in 10.0 mi East 9.2 mph - N/A   Clear
9:50 AM 60.8 °F - 44.6 °F 55% 30.32 in 10.0 mi East 10.4 mph - N/A   Clear
10:10 AM 62.6 °F - 44.6 °F 52% 30.33 in 10.0 mi ENE 8.1 mph - N/A   Clear
10:30 AM 66.2 °F - 44.6 °F 46% 30.33 in 10.0 mi East 6.9 mph - N/A   Clear
10:50 AM 69.8 °F - 46.4 °F 43% 30.33 in 10.0 mi NE 4.6 mph - N/A   Clear
11:10 AM 69.8 °F - 42.8 °F 38% 30.33 in 10.0 mi East 9.2 mph - N/A   Clear
11:30 AM 69.8 °F - 41.0 °F 35% 30.33 in 10.0 mi NE 9.2 mph 16.1 mph N/A   Clear
11:31 AM 69.3 °F - 40.5 °F 35% 30.33 in 10.0 mi NE 9.2 mph 16.1 mph N/A   Clear
11:49 AM 71.1 °F - 40.5 °F 33% 30.33 in 10.0 mi ENE 11.5 mph 20.7 mph N/A   Clear
12:09 PM 71.4 °F - 41.0 °F 33% 30.33 in 10.0 mi ENE 6.9 mph - N/A   Clear
12:29 PM 71.8 °F - 41.2 °F 33% 30.33 in 10.0 mi ENE 6.9 mph - N/A   Clear
12:49 PM 72.9 °F - 41.2 °F 32% 30.33 in 10.0 mi East 5.8 mph - N/A   Clear
1:09 PM 74.3 °F - 43.3 °F 33% 30.32 in 10.0 mi ENE 8.1 mph - N/A   Clear
1:29 PM 74.3 °F - 43.5 °F 33% 30.31 in 10.0 mi NE 10.4 mph - N/A   Clear
1:49 PM 74.3 °F - 43.0 °F 33% 30.31 in 10.0 mi NNE 4.6 mph - N/A   Clear
2:09 PM 74.3 °F - 42.4 °F 32% 30.30 in 10.0 mi NE 9.2 mph - N/A   Clear
2:28 PM 74.3 °F - 42.8 °F 32% 30.30 in 10.0 mi ENE 6.9 mph - N/A   Clear
2:49 PM 74.3 °F - 41.7 °F 31% 30.29 in 10.0 mi NNE 3.5 mph - N/A   Clear
3:02 PM 74.3 °F - 42.4 °F 32% 30.29 in 10.0 mi ENE 8.1 mph - N/A   Clear
3:30 PM 73.4 °F - 41.0 °F 31% 30.28 in 10.0 mi East 3.5 mph - N/A   Clear
3:50 PM 73.4 °F - 41.0 °F 31% 30.28 in 10.0 mi NNE 4.6 mph - N/A   Clear
4:10 PM 73.4 °F - 42.8 °F 33% 30.28 in 10.0 mi ESE 6.9 mph - N/A   Clear
4:30 PM 73.4 °F - 41.0 °F 31% 30.27 in 10.0 mi East 5.8 mph - N/A   Clear
4:50 PM 73.4 °F - 41.0 °F 31% 30.27 in 10.0 mi ENE 4.6 mph - N/A   Clear
5:10 PM 73.4 °F - 42.8 °F 33% 30.27 in 10.0 mi NE 3.5 mph - N/A   Clear
5:30 PM 73.4 °F - 42.8 °F 33% 30.26 in 10.0 mi ENE 6.9 mph - N/A   Clear
5:50 PM 73.4 °F - 42.8 °F 33% 30.26 in 10.0 mi ENE 8.1 mph - N/A   Clear
6:10 PM 73.4 °F - 44.6 °F 36% 30.26 in 10.0 mi ENE 8.1 mph - N/A   Clear
6:28 PM 73.2 °F - 43.5 °F 34% 30.25 in 10.0 mi ENE 9.2 mph - N/A   Clear
6:30 PM 71.6 °F - 42.8 °F 35% 30.25 in 10.0 mi ENE 8.1 mph - N/A   Clear
6:49 PM 69.3 °F - 43.2 °F 39% 30.25 in 10.0 mi ENE 5.8 mph - N/A   Clear
7:09 PM 69.3 °F - 44.6 °F 41% 30.25 in 10.0 mi ENE 5.8 mph - N/A   Clear
7:29 PM 63.5 °F - 43.5 °F 48% 30.25 in 10.0 mi NE 6.9 mph - N/A   Clear
7:48 PM 61.7 °F - 43.7 °F 52% 30.25 in 10.0 mi NE 6.9 mph - N/A   Clear
8:09 PM 61.2 °F - 43.7 °F 53% 30.25 in 10.0 mi ENE 5.8 mph - N/A   Clear
8:29 PM 61.7 °F - 43.7 °F 52% 30.25 in 10.0 mi ENE 8.1 mph - N/A   Clear
8:49 PM 61.7 °F - 43.3 °F 51% 30.25 in 10.0 mi ENE 5.8 mph - N/A   Clear
9:09 PM 59.5 °F - 43.0 °F 54% 30.25 in 10.0 mi ENE 4.6 mph - N/A   Clear
9:28 PM 59.2 °F - 42.8 °F 55% 30.25 in 10.0 mi ENE 5.8 mph - N/A   Clear
9:49 PM 59.2 °F - 43.5 °F 56% 30.25 in 10.0 mi East 6.9 mph - N/A   Clear
10:08 PM 59.2 °F - 43.3 °F 56% 30.24 in 10.0 mi East 5.8 mph - N/A   Clear
10:29 PM 59.2 °F - 43.5 °F 56% 30.24 in 10.0 mi East 6.9 mph - N/A   Clear
10:49 PM 59.2 °F - 43.2 °F 55% 30.24 in 10.0 mi East 6.9 mph - N/A   Clear
11:08 PM 59.2 °F - 43.9 °F 57% 30.24 in 10.0 mi East 6.9 mph - N/A   Clear
11:29 PM 56.7 °F - 43.3 °F 61% 30.24 in 10.0 mi East 6.9 mph - N/A   Clear
11:49 PM 56.7 °F - 43.5 °F 61% 30.23 in 10.0 mi East 6.9 mph - N/A   Clear